Regional Weather Roundup
Issued by NWS

Home | Current Version | Previous Version | Graphics & Text | Print | Product List | Glossary On
Versions: 1 2 3 4 5 6 7 8 9 10 11 12 13 14 15 16 17 18 19 20 21 22 23 24 25 26 27 28 29 30 31 32 33 34 35 36 37 38 39 40 41 42 43 44 45 46 47 48 49 50
000
ASUS43 KOAX 181110
RWRNE

WEATHER ROUNDUP FOR NEBRASKA
NATIONAL WEATHER SERVICE OMAHA NE
600 AM CDT FRI AUG 18 2017

NOTES: SATELLITE DATA IS BEING USED TO AUGMENT CLOUD COVER ABOVE
       12000 FEET.
       "FAIR" INDICATES FEW OR NO CLOUDS BELOW 12,000 FEET WITH NO
       SIGNIFICANT WEATHER AND/OR OBSTRUCTIONS TO VISIBILITY.


NEZ001>004-019>022-054>056-181200-
NEBRASKA PANHANDLE

CITY           SKY/WX    TMP DP  RH WIND       PRES   REMARKS
SCOTTSBLUFF    CLEAR     53  49  86 NW7       30.11R
ALLIANCE       CLEAR     47  46  97 MISG      30.08S
CHADRON        CLEAR     51  47  86 W7        30.06R
GORDON         FAIR      51  47  88 W3        30.04S
KIMBALL        CLOUDY    53  49  85 NW8       30.15S
SIDNEY         CLOUDY    51  49  92 NW7       30.11S
$$

NEZ057>060-069>072-079>082-181200-
SOUTHWEST NEBRASKA

CITY           SKY/WX    TMP DP  RH WIND       PRES   REMARKS
NORTH PLATTE   CLEAR     56  54  93 CALM      30.00R
IMPERIAL       CLEAR     55  53  93 E7        30.01F
LEXINGTON      CLEAR     61  57  88 S3        29.99S
MCCOOK         CLEAR     61  58  90 E3        30.02R
OGALLALA       CLEAR     58  56  92 CALM      30.04R
$$

NEZ005>010-023>029-035>040-094-181200-
NORTH CENTRAL NEBRASKA

CITY           SKY/WX    TMP DP  RH WIND       PRES   REMARKS
VALENTINE      CLEAR     58  51  78 SW7       29.96S
AINSWORTH      CLEAR     58  56  94 W8        29.97S
BROKEN BOW     CLEAR     60  56  86 CALM      29.98R
O`NEILL        CLEAR     57  57 100 NW5       29.95S
ORD            CLEAR     59  55  87 CALM      29.93S
THEDFORD       CLEAR     55  54  95 W6        30.01R
$$

NEZ041-046>049-061>064-073>077-083>087-181200-
SOUTH CENTRAL NEBRASKA

CITY           SKY/WX    TMP DP  RH WIND       PRES   REMARKS
GRAND ISLAND   PTCLDY    61  60  97 W7        29.94R
AURORA         PTCLDY    61  59  93 CALM      29.92R
HASTINGS       CLOUDY    64  58  80 S5        29.95R
HEBRON         CLOUDY    66  61  84 CALM      29.95F
HOLDREGE       CLEAR     62  56  83 S7        29.98S
KEARNEY        PTCLDY    63  58  83 SW9       29.97R
YORK           CLOUDY    63  61  94 SE7       29.90R
$$

NEZ011>018-030>034-042>045-181200-
NORTHEAST NEBRASKA

CITY           SKY/WX    TMP DP  RH WIND       PRES   REMARKS
NORFOLK        CLEAR     60  58  92 N8        29.90R
ALBION         CLEAR     59  58  96 N3        29.92R
BLAIR          RAIN      67  61  83 SE8       29.84F
COLUMBUS       PTCLDY    62  61  96 S6        29.88F
FREMONT        MOCLDY    64  62  96 CALM      29.86F
TEKAMAH        CLOUDY    67  59  75 SW9       29.82F
WAYNE          CLOUDY    63  60  91 NW8       29.90R
$$

NEZ050>053-065>068-078-088>093-181200-
SOUTHEAST NEBRASKA

CITY           SKY/WX    TMP DP  RH WIND       PRES   REMARKS
LINCOLN        CLOUDY    67  61  81 S15       29.87F
OMAHA EPPLEY   CLOUDY    68  62  81 SE12      29.87F
BEATRICE       CLOUDY    65  62  87 CALM      29.97S
FALLS CITY     CLOUDY    65  59  81 SW3       29.93R
NEBRASKA CITY  MOCLDY    65  64  97 NW5       29.94S
PLATTSMOUTH    CLOUDY    65  61  86 CALM      29.91F
$$

NEZ044-045-051>053-067-181200-
OMAHA AREA

CITY           SKY/WX    TMP DP  RH WIND       PRES   REMARKS
OMAHA EPPLEY   CLOUDY    68  62  81 SE12      29.87F
BLAIR          RAIN      67  61  83 SE8       29.84F
FREMONT        MOCLDY    64  62  96 CALM      29.86F
MILLARD        PTCLDY    67  64  89 SE10      29.86F
OFFUTT AFB     PTCLDY    64  61  91 SE3       29.88F
PLATTSMOUTH    CLOUDY    65  61  86 CALM      29.91F
WAHOO          FAIR      63  62  96 S5        29.87F
$$




USA.gov is the U.S. government's official web portal to all federal, state and local government web resources and services.